User: anonymous   Login
Location: Caltech
(34.1382°N, 118.1253°W)
Time: 12:36:32
(UTC-07:00)
Language:

IDEFIX/ARIANE 42P - Orbit

View from above orbital plane
View from above orbital plane
View from above satellite
View from above satellite

Ground track
Ground track

The orbit data is extracted from the following two-line orbital elements,

1 27422U 02021B   17115.86435381 +.00000009 +00000-0 +19331-4 0  9995
2 27422 098.2299 119.0331 0013058 036.9426 323.2654 14.29252815781092
Epoch (UTC): 25 April 2017 20:44:40
Eccentricity: 0.0013058
inclination: 98.2299°
perigee height: 785 km
apogee height: 803 km
right ascension of ascending node: 119.0331°
argument of perigee: 36.9426°
revolutions per day: 14.29252815
mean anomaly at epoch: 323.2654°
orbit number at epoch: 78109

The dashed part of the orbit path shows where the satellite is in the earth's shadow,  

DLR